BEIDOU-2 G3

Last updated on Thu Oct 30 2025 00:02:48 GMT+0000 (Coordinated Universal Time)

1 36590U 10024A 25302.48685112 -.00000124 00000+0 00000+0 0 9993 2 36590 3.9654 62.2348 0003449 333.8153 257.0129 1.00271770 56454
UTC large
Height (km)
Speed (km/s)
/
Latitude / Longitude
Inclination (degrees)
Orbital Period (minutes)
Azimuth
Elevation
Range (km)
Doppler Factor

Next 0 passes for location: London (51.5072 / 0.1276)

Sorry there are no passes over London.